STARLINK-32941, 63119

Orbit data source: Space-Track

STARLINK-32941, 63119 is a payload satellite owned by SpaceX/Seattle (US) in LEO that was launched on Thu, 27 Feb 2025 UTC via an FALCON 9 launch vehicle from the Air Force Eastern Test Range (AFETR). Payload-class satellites include a variety of spacecraft equipped with specific instruments for various scientific and technological missions. These include communications satellites like Starlink; space stations such as the ISS; scientific satellites like the Hubble; Earth observation satellites from companies like Planet Labs, Umbra, and HawkEye 360; GPS; miniature CubeSats for education and research; and military/defense satellites.

Loading next visibility...
Identifier
63119, 2025-039R
Orbit
LEO
Country
Flag of USUS
Related business
Manufacturer
SpaceX/Seattle
Mission
Operational Commercial Communications
Bus & Motor
STARLINK V2M, Unknown motor
Mass
730 kg wet, ~700 kg dry
Launch date (UTC)
2025-02-27 (1 year ago)
Launch vehicle
FALCON 9
Launch site
Air Force Eastern Test Range (AFETR)
Object type
Payload
Rocket body
Debris
Shape & HBR
Box + 2 Pan, 17.7 m
Radar Cross Section
33.884 m², Large (>1 m²)

Expand to show TLE details & history
Last TLE update: 14 hours ago

TLE from 14 hours ago
0 STARLINK-32941
1 63119U 25039R   26071.73380188  .00028379  00000-0  10361-2 0  9995
2 63119  43.0013 344.2205 0002841 278.5548  81.4982 15.27599814 58665
Epoch: 2026-03-12T17:36Z
TLE epoch observation values (Epoch: 2026-03-12T17:36:40.482Z)
Latitude
0.00001°
Longitude
-90.32761°
Altitude
482.478 km
Speed
7.626 km/s
True Right ascension
22h 56m 52s
True Declination
0° 00' 00"
Sunlit
Object was in daylight at epoch
Visualization orbit readout
Latitude
Unknown
Longitude
Unknown
Altitude
Unknown
Speed
Unknown
Apparent Right ascension
Unknown
Apparent Declination
Unknown
Sunlit
N/A
Visualization observer readout
Local Sidereal Time
12:00:29
Azimuth
Unknown
Elevation
Unknown
Doppler factor
Unknown
Orbital elements
Apogee altitude
486.885 km
Perigee altitude
482.985 km
Semi-major axis
6,863.072 km
Eccentricity
0.00028
Inclination
43.0013°
RAAN
344.2205°
Arg. of periapsis
278.5548°
True anomaly
81.5304°
Mean anomaly
81.4982°
Eccentric anomaly
81.5143°
Mean motion
3.81738 °/min
Orbital period
94.31 mins
BSTAR
0.0010361
Loading maneuver chart data...
Computing Atmospheric mass density...
Loading historical data...
Loading historical data...
Loading historical data...
Loading historical data...
Loading historical data...
Loading historical data...
Loading historical data...

Documentation

Showing up to 5 results
|